Showing default

HULIANWANG DIGUI-17, 62977

Orbit data source: Space-Track

HULIANWANG DIGUI-17, 62977 is a payload satellite owned by Zhongguo Xingwang (CN) in LEO that was launched on Tue, 11 Feb 2025 UTC via a CHANG ZHENG 8A launch vehicle from the Wenchang Satellite Launch Center (WSC). Payload-class satellites include a variety of spacecraft equipped with specific instruments for various scientific and technological missions. These include communications satellites like Starlink; space stations such as the ISS; scientific satellites like the Hubble; Earth observation satellites from companies like Planet Labs, Umbra, and HawkEye 360; GPS; miniature CubeSats for education and research; and military/defense satellites.

Loading next visibility...
Identifier
62977, 2025-030G
Orbit
LEO
Country
Flag of CNCN / PRC
Related business
Manufacturer
CAST
Mission
Operational Civil Communications
Bus & Motor
XINGWANG C, Unknown motor
Mass
~700 kg wet, ~700 kg dry
Launch date (UTC)
2025-02-11 (1 year ago)
Launch vehicle
CHANG ZHENG 8A
Launch site
Wenchang Satellite Launch Center (WSC)
Object type
Payload
Rocket body
Debris
Shape & HBR
Box + 2 Pan, 2.0 m
Radar Cross Section
5.935 m², Large (>1 m²)

Expand to show TLE details & history
Last TLE update: 9 hours ago

TLE from 9 hours ago
0 HULIANWANG DIGUI-17
1 62977U 25030G   26104.95923018 -.00000083  00000-0  89383-4 0  9998
2 62977  50.0046 102.3480 0001177 305.7333  54.3430 13.29325158 57455
Epoch: 2026-04-14T23:01Z
TLE epoch observation values (Epoch: 2026-04-14T23:01:17.487Z)
Latitude
0.00001°
Longitude
-86.10285°
Altitude
1,149.3 km
Speed
7.28 km/s
True Right ascension
06h 49m 23s
True Declination
0° 00' 00"
Sunlit
Object was in daylight at epoch
Visualization orbit readout
Latitude
Unknown
Longitude
Unknown
Altitude
Unknown
Speed
Unknown
Apparent Right ascension
Unknown
Apparent Declination
Unknown
Sunlit
N/A
Visualization observer readout
Local Sidereal Time
14:25:19
Azimuth
Unknown
Elevation
Unknown
Doppler factor
Unknown
Orbital elements
Apogee altitude
1,150.9 km
Perigee altitude
1,149.128 km
Semi-major axis
7,528.151 km
Eccentricity
0.00012
Inclination
50.0046°
RAAN
102.348°
Arg. of periapsis
305.7333°
True anomaly
54.35396°
Mean anomaly
54.343°
Eccentric anomaly
54.34848°
Mean motion
3.32285 °/min
Orbital period
108.34 mins
BSTAR
0.000089383
Loading maneuver chart data...
Computing Atmospheric mass density...
Loading historical data...
Loading historical data...
Loading historical data...
Loading historical data...
Loading historical data...
Loading historical data...
Loading historical data...

Documentation

Showing up to 5 results
|